#timestamp,LO_Frequency,Hit,StdDev 
1632625215.8,286047000.1,N
1632625235.6,286047000.0,N
1632625255.5,286047000.8,N
1632625275.3,286046998.2,N
1632625295.1,286046998.2,N
1632625315.9,286047000.4,N
1632625335.7,286046999.7,N
1632625355.6,286047001.9,N
1632625375.4,286047000.0,N
1632625395.2,286047002.4,N
1632625415.1,286046999.9,N
1632625416.0,286046999.9,N
1632625435.8,286047004.3,Y
1632625455.7,286047001.7,P
1632625475.5,286047001.9,N
1632625495.3,286047000.2,N
1632625515.2,286047002.7,Y
1632625535.0,286047001.1,P
1632625535.9,286047001.1,P
1632625555.8,286047000.7,P
1632625575.6,286047000.5,N
1632625595.4,286047000.0,N
1632625615.3,286046999.1,N
1632625635.1,286046998.7,N
1632625655.8,286046998.2,N
1632625675.7,286047000.8,N
1632625695.5,286047000.4,N
1632625715.4,286047002.7,N
1632625735.2,286046998.3,N
1632625755.0,286047001.1,N
1632625755.9,286047001.1,N
1632625775.8,286047000.9,N
1632625795.6,286046998.3,N
1632625815.4,286046998.4,N
1632625835.3,286046999.3,N
1632625855.1,286046998.8,N
1632625875.9,286046998.6,N
1632625895.7,286046999.0,N
1632625915.5,286046998.3,N
1632625935.4,286046998.1,N
1632625955.0,286046998.4,N
1632625955.9,286046998.4,N
1632625975.8,286046998.6,N
1632625995.6,286046998.5,N
1632626015.4,286046998.5,N
1632626035.3,286047001.0,N
1632626055.1,286047000.1,N
1632626075.9,286046999.7,N
1632626095.7,286047002.5,N
1632626115.5,286047000.3,N
1632626135.4,286047000.8,N
1632626155.2,286047001.1,N
1632626175.1,286046998.7,N
1632626176.0,286046998.7,N
1632626195.8,286046998.5,N
1632626215.6,286047000.4,N
1632626235.5,286047002.7,N
1632626255.5,286047002.4,N
1632626275.4,286047000.1,N
1632626295.2,286047000.8,N
1632626315.1,286046998.1,N
1632626316.0,286046998.1,N
1632626335.8,286046999.3,N
1632626355.6,286046996.5,N
1632626375.5,286046999.6,N
1632626395.3,286046997.7,N
1632626415.2,286046999.2,N
1632626435.9,286046997.2,N
1632626455.7,286046999.5,N
1632626475.6,286046999.2,N
1632626495.4,286046997.5,N
1632626515.2,286046996.6,N
1632626535.1,286046998.4,N
1632626536.0,286046998.4,N
1632626555.8,286046998.5,N
1632626575.7,286046999.1,N
1632626595.5,286046999.5,N
1632626615.9,286046998.8,N
1632626635.7,286046999.5,N
1632626655.5,286046997.4,N
1632626675.4,286046995.6,Y
1632626695.2,286046997.9,P
1632626715.1,286046999.5,N
1632626716.0,286046999.5,N
1632626735.8,286047000.6,N
1632626755.6,286047000.7,N
1632626775.5,286046998.7,N
1632626795.3,286046998.4,N
1632626815.2,286046999.1,N
1632626835.9,286046997.0,Y
1632626855.7,286046998.1,P
1632626875.6,286047000.7,N
1632626895.4,286046999.0,N
1632626915.3,286046999.1,N
1632626935.1,286046997.9,N
1632626955.8,286046995.0,Y
1632626975.7,286046996.8,P
1632626995.5,286046996.6,P
1632627015.4,286047000.9,N
1632627035.2,286047000.3,N
1632627055.0,286046999.0,N
1632627055.9,286046999.0,N
1632627075.8,286046998.4,N
1632627095.6,286046998.4,N
1632627115.4,286047001.1,N
1632627135.3,286047000.2,N
1632627155.1,286047000.8,N
1632627175.9,286047002.5,N
1632627195.7,286046999.7,N
1632627215.5,286047002.8,N
1632627235.4,286047001.5,N
1632627255.2,286047001.8,N
1632627275.0,286047002.3,N
1632627276.0,286047002.3,N
1632627295.8,286047002.1,N
1632627315.6,286047003.8,N
1632627335.5,286047001.8,N
1632627355.3,286047002.0,N
1632627375.1,286047002.4,N
1632627395.9,286047002.1,N
1632627415.7,286047000.2,N
1632627435.6,286047002.3,N
1632627455.4,286047002.4,N
1632627475.2,286047004.3,N
1632627495.1,286047001.5,N
1632627496.0,286047001.5,N
1632627515.8,286047002.7,N
1632627535.6,286047000.7,N
1632627555.5,286047000.0,N
1632627575.3,286046998.3,N
1632627595.2,286046996.6,N
1632627615.9,286046998.3,N
1632627635.7,286046998.1,N
1632627655.6,286046999.5,N
1632627675.4,286046999.3,N
1632627695.2,286047000.7,N
1632627715.1,286047002.8,N
1632627716.0,286047002.8,N
1632627735.8,286047004.1,N
1632627755.7,286047002.3,N
1632627775.5,286047002.3,N
1632627795.3,286047004.2,N
1632627815.2,286047002.6,N
1632627835.0,286047002.1,N
1632627835.9,286047002.1,N
1632627855.8,286047002.3,N
1632627875.6,286047001.4,N
1632627895.4,286047003.5,N
1632627915.3,286047004.3,N
1632627935.1,286046999.7,N
1632627955.8,286047001.9,N
1632627975.7,286047002.1,N
1632627995.5,286047002.1,N
1632628015.4,286047002.5,N
1632628035.2,286047001.7,N
1632628055.0,286047001.7,N
1632628055.9,286047001.7,N
1632628075.4,286047003.8,N
1632628095.2,286047003.1,N
1632628115.1,286047003.9,N
1632628116.0,286047003.9,N
1632628135.8,286047003.1,N
1632628155.6,286047001.8,N
1632628175.5,286047002.1,N
1632628195.3,286047004.0,Y
1632628215.2,286047000.2,P
1632628235.9,286046998.7,N
1632628255.7,286046997.1,N
1632628275.6,286046998.7,N
1632628295.4,286046998.5,N
1632628315.3,286046998.9,N
1632628335.1,286046999.2,N
1632628336.0,286046999.2,N
1632628355.8,286047001.2,N
1632628375.7,286046999.8,N
1632628395.5,286047002.3,N
1632628415.3,286047000.1,N
1632628435.2,286047000.0,N
1632628455.0,286047000.3,N
1632628455.9,286047000.3,N
1632628475.8,286046999.7,N
1632628495.6,286047001.6,N
1632628515.4,286047004.4,Y
1632628535.3,286047003.0,P
1632628555.1,286047005.8,P
1632628575.9,286047001.7,N
1632628595.7,286047002.0,N
1632628615.5,286047002.6,N
1632628635.4,286046999.8,N
1632628655.2,286046999.8,N
1632628675.1,286047004.4,N
1632628676.0,286047004.4,N
1632628695.8,286047001.8,N
1632628715.6,286047003.6,N
1632628735.5,286047001.9,N
1632628755.3,286047000.8,N
1632628775.2,286047001.2,N
1632628795.9,286047001.1,N
